Location: Newark
(46.3833°N, 6.2000°E)
Time: 03:33:48
(UTC+00:00)

N. Korean satellite - Pass Details

Date: 27 February 2020
Orbit: 454 x 507 km, 97.2° (Epoch: 04 April)

Event Time Altitude Azimuth Distance (km) Brightness Sun altitude
Rises 04:07:24 0° 35° (NE) 2,619 11.0 -23.4°
Reaches altitude 10° 04:11:18 10° 77° (ENE) 1,717 10.5 -22.8°
Maximum altitude 04:12:02 10° 88° (E) 1,685 10.4 -22.7°
Drops below altitude 10° 04:12:45 10° 99° (E) 1,711 10.3 -22.5°
Sets 04:16:35 0° 141° (SE) 2,572 10.6 -21.9°
